When you browse on this site, cookies collect data to enhance your experience and personalize the content and advertising you see.
Visit our Privacy Policy to learn more. By continuing to use the site, you agree to this use of cookies and data.

Meteo pe oră la Aleşd

Astăzi, 21 Septembrie, Luni

Timp Temperatura Precipitaţii Vânt Presiune Umiditate
00:00 +15°C° 0 mm 1 m/s 733 mmHg 61%
01:00 +14°C° 0 mm 1 m/s 733 mmHg 63%
02:00 +14°C° 0 mm 1 m/s 733 mmHg 63%
03:00 +14°C° 0 mm 1 m/s 733 mmHg 63%
04:00 +13°C° 0 mm 1 m/s 733 mmHg 62%
05:00 +15°C° 0 mm 1 m/s 734 mmHg 59%
06:00 +16°C° 0 mm 1 m/s 734 mmHg 56%
07:00 +18°C° 0 mm 1 m/s 734 mmHg 51%
08:00 +21°C° 0 mm 1 m/s 734 mmHg 46%
09:00 +23°C° 0 mm 1 m/s 734 mmHg 41%
10:00 +25°C° 0 mm 1 m/s 735 mmHg 37%
11:00 +26°C° 0 mm 1 m/s 734 mmHg 35%
12:00 +26°C° 0 mm 1 m/s 734 mmHg 33%
13:00 +27°C° 0 mm 1 m/s 734 mmHg 31%
14:00 +27°C° 0 mm 1 m/s 734 mmHg 33%
15:00 +26°C° 0 mm 1 m/s 734 mmHg 35%
16:00 +26°C° 0 mm 1 m/s 733 mmHg 37%
17:00 +23°C° 0 mm 1 m/s 733 mmHg 44%
18:00 +21°C° 0 mm 1 m/s 733 mmHg 52%
19:00 +18°C° 0 mm 1 m/s 733 mmHg 59%
20:00 +18°C° 0 mm 1 m/s 733 mmHg 61%
21:00 +16°C° 0 mm 1 m/s 733 mmHg 62%
22:00 +16°C° 0 mm 1 m/s 733 mmHg 63%
23:00 +16°C° 0 mm 1 m/s 733 mmHg 64%

Mâine, 22 Septembrie, Marţi

Timp Temperatura Precipitaţii Vânt Presiune Umiditate
00:00 +15°C° 0 mm 1 m/s 733 mmHg 64%
01:00 +15°C° 0 mm 1 m/s 733 mmHg 64%
02:00 +15°C° 0 mm 1 m/s 733 mmHg 64%
03:00 +15°C° 0 mm 1 m/s 733 mmHg 64%
04:00 +15°C° 0 mm 1 m/s 733 mmHg 64%
05:00 +16°C° 0 mm 1 m/s 733 mmHg 60%
06:00 +18°C° 0 mm 1 m/s 733 mmHg 57%
07:00 +20°C° 0 mm 1 m/s 733 mmHg 53%
08:00 +22°C° 0 mm 1 m/s 733 mmHg 46%
09:00 +24°C° 0 mm 1 m/s 733 mmHg 40%
10:00 +27°C° 0 mm 1 m/s 733 mmHg 33%
11:00 +27°C° 0 mm 1 m/s 733 mmHg 32%
12:00 +28°C° 0 mm 1 m/s 733 mmHg 30%
13:00 +29°C° 0 mm 1 m/s 732 mmHg 29%
14:00 +28°C° 0 mm 1 m/s 732 mmHg 31%
15:00 +28°C° 0 mm 1 m/s 731 mmHg 33%
16:00 +27°C° 0 mm 1 m/s 731 mmHg 35%
17:00 +25°C° 0 mm 1 m/s 731 mmHg 42%
18:00 +22°C° 0 mm 1 m/s 731 mmHg 49%
19:00 +18°C° 0 mm 2 m/s 731 mmHg 55%
20:00 +18°C° 0 mm 2 m/s 730 mmHg 54%
21:00 +18°C° 0 mm 2 m/s 730 mmHg 52%
22:00 +17°C° 0 mm 2 m/s 730 mmHg 51%
23:00 +17°C° 0 mm 2 m/s 730 mmHg 51%

Poimâine, 23 Septembrie, Miercuri

Timp Temperatura Precipitaţii Vânt Presiune Umiditate
00:00 +17°C° 0 mm 2 m/s 730 mmHg 51%
01:00 +16°C° 0 mm 1 m/s 730 mmHg 50%
02:00 +16°C° 0 mm 2 m/s 730 mmHg 51%
03:00 +16°C° 0 mm 2 m/s 729 mmHg 51%
04:00 +16°C° 0 mm 2 m/s 729 mmHg 51%
05:00 +17°C° 0 mm 2 m/s 729 mmHg 50%
06:00 +19°C° 0 mm 1 m/s 729 mmHg 48%
07:00 +20°C° 0 mm 1 m/s 729 mmHg 47%
08:00 +22°C° 0 mm 1 m/s 729 mmHg 42%
09:00 +24°C° 0 mm 1 m/s 729 mmHg 36%
10:00 +27°C° 0 mm 1 m/s 729 mmHg 31%
11:00 +27°C° 0 mm 2 m/s 729 mmHg 29%
12:00 +28°C° 0 mm 2 m/s 729 mmHg 28%
13:00 +29°C° 0 mm 2 m/s 728 mmHg 27%
14:00 +28°C° 0 mm 2 m/s 728 mmHg 29%
15:00 +28°C° 0 mm 2 m/s 728 mmHg 31%
16:00 +27°C° 0 mm 1 m/s 727 mmHg 34%
17:00 +25°C° 0 mm 1 m/s 727 mmHg 39%
18:00 +21°C° 0 mm 2 m/s 727 mmHg 44%
19:00 +19°C° 0 mm 2 m/s 727 mmHg 49%
20:00 +19°C° 0 mm 2 m/s 727 mmHg 49%
21:00 +19°C° 0 mm 2 m/s 727 mmHg 49%
22:00 +19°C° 0 mm 2 m/s 727 mmHg 49%
23:00 +19°C° 0 mm 2 m/s 727 mmHg 50%

24 Septembrie, Joi

Timp Temperatura Precipitaţii Vânt Presiune Umiditate
00:00 +19°C° 0 mm 2 m/s 727 mmHg 52%
01:00 +19°C° 0 mm 3 m/s 727 mmHg 54%
02:00 +18°C° 0 mm 2 m/s 727 mmHg 59%
03:00 +17°C° 0 mm 2 m/s 727 mmHg 64%
04:00 +17°C° 0 mm 2 m/s 727 mmHg 69%
05:00 +17°C° 0 mm 2 m/s 728 mmHg 68%
06:00 +18°C° 0 mm 2 m/s 728 mmHg 68%
07:00 +19°C° 0 mm 2 m/s 728 mmHg 68%
08:00 +20°C° 0.1 mm 2 m/s 728 mmHg 64%
09:00 +21°C° 0.1 mm 3 m/s 729 mmHg 61%
10:00 +24°C° 0.1 mm 3 m/s 729 mmHg 58%
11:00 +24°C° 0.3 mm 3 m/s 729 mmHg 57%
12:00 +25°C° 0.3 mm 3 m/s 729 mmHg 56%
13:00 +25°C° 0.3 mm 3 m/s 729 mmHg 54%
14:00 +25°C° 0.1 mm 2 m/s 729 mmHg 54%
15:00 +25°C° 0.1 mm 2 m/s 728 mmHg 53%
16:00 +25°C° 0.1 mm 2 m/s 728 mmHg 53%
17:00 +23°C° 0 mm 2 m/s 728 mmHg 58%
18:00 +20°C° 0 mm 2 m/s 729 mmHg 64%
19:00 +19°C° 0 mm 2 m/s 729 mmHg 69%
20:00 +18°C° 0 mm 2 m/s 729 mmHg 70%
21:00 +18°C° 0 mm 2 m/s 729 mmHg 70%
22:00 +18°C° 0 mm 2 m/s 729 mmHg 71%
23:00 +18°C° 0 mm 2 m/s 729 mmHg 70%

25 Septembrie, Vineri

Timp Temperatura Precipitaţii Vânt Presiune Umiditate
00:00 +18°C° 0 mm 2 m/s 729 mmHg 69%
01:00 +18°C° 0 mm 2 m/s 729 mmHg 69%
02:00 +18°C° 0 mm 2 m/s 729 mmHg 70%
03:00 +17°C° 0 mm 2 m/s 728 mmHg 70%
04:00 +17°C° 0 mm 2 m/s 728 mmHg 71%
05:00 +18°C° 0 mm 2 m/s 728 mmHg 68%
06:00 +19°C° 0 mm 2 m/s 728 mmHg 65%
07:00 +20°C° 0 mm 2 m/s 728 mmHg 62%
08:00 +23°C° 0 mm 2 m/s 728 mmHg 56%
09:00 +25°C° 0 mm 3 m/s 728 mmHg 49%
10:00 +27°C° 0 mm 3 m/s 728 mmHg 43%
11:00 +27°C° 0 mm 3 m/s 727 mmHg 41%
12:00 +28°C° 0 mm 3 m/s 727 mmHg 40%
13:00 +28°C° 0 mm 3 m/s 726 mmHg 38%
14:00 +28°C° 0 mm 3 m/s 726 mmHg 40%
15:00 +27°C° 0 mm 3 m/s 725 mmHg 42%
16:00 +27°C° 0 mm 3 m/s 724 mmHg 44%
17:00 +26°C° 0 mm 3 m/s 724 mmHg 47%
18:00 +25°C° 0 mm 3 m/s 724 mmHg 51%
19:00 +22°C° 0 mm 3 m/s 724 mmHg 54%
20:00 +23°C° 0.1 mm 2 m/s 724 mmHg 56%
21:00 +21°C° 0.1 mm 2 m/s 723 mmHg 59%
22:00 +21°C° 0.1 mm 2 m/s 723 mmHg 61%
23:00 +21°C° 0 mm 3 m/s 723 mmHg 58%

26 Septembrie, Sâmbătă

Timp Temperatura Precipitaţii Vânt Presiune Umiditate
00:00 +21°C° 0 mm 4 m/s 723 mmHg 56%
01:00 +21°C° 0 mm 5 m/s 723 mmHg 53%
02:00 +20°C° 0.1 mm 4 m/s 723 mmHg 59%
03:00 +19°C° 0.1 mm 3 m/s 722 mmHg 65%
04:00 +18°C° 0.1 mm 2 m/s 722 mmHg 70%
05:00 +18°C° 0.2 mm 2 m/s 722 mmHg 73%
06:00 +18°C° 0.2 mm 2 m/s 722 mmHg 75%
07:00 +19°C° 0.2 mm 2 m/s 722 mmHg 77%
08:00 +20°C° 0.1 mm 2 m/s 722 mmHg 73%
09:00 +21°C° 0.1 mm 2 m/s 722 mmHg 68%
10:00 +23°C° 0.1 mm 2 m/s 722 mmHg 63%
11:00 +25°C° 0 mm 3 m/s 722 mmHg 55%
12:00 +27°C° 0 mm 3 m/s 722 mmHg 47%
13:00 +29°C° 0 mm 3 m/s 722 mmHg 38%
14:00 +28°C° 0 mm 3 m/s 721 mmHg 42%
15:00 +27°C° 0 mm 3 m/s 721 mmHg 45%
16:00 +25°C° 0 mm 3 m/s 720 mmHg 48%
17:00 +24°C° 0 mm 2 m/s 720 mmHg 53%
18:00 +23°C° 0 mm 2 m/s 720 mmHg 57%
19:00 +21°C° 0 mm 2 m/s 720 mmHg 61%
20:00 +20°C° 0 mm 2 m/s 720 mmHg 65%
21:00 +20°C° 0 mm 2 m/s 720 mmHg 68%
22:00 +20°C° 0 mm 1 m/s 720 mmHg 72%
23:00 +19°C° 0.1 mm 2 m/s 721 mmHg 74%
Arată mai mult